| time (UTC) | temp C | wind direction | speed KPH | gust KPH | rain 1hr cm | rain 24hr cm | rain mn cm | humidity % | barometer mb |
| 20260504081528 | 11 | 280 | 0.0 | 6.4 | 0.00 | 0.03 | 0.00 | 49 | 1003.8 |
| 20260504050115 | 9 | 174 | 14.5 | 27.4 | 0.00 | 0.03 | 0.03 | 63 | 1004.1 |
| 20260504044558 | 8 | 183 | 12.9 | 17.7 | 0.00 | 0.03 | 0.03 | 63 | 1004.2 |
| 20260504043108 | 10 | 177 | 12.9 | 17.7 | 0.00 | 0.03 | 0.03 | 59 | 1004.3 |
| 20260504041556 | 10 | 164 | 12.9 | 22.5 | 0.00 | 0.03 | 0.03 | 58 | 1004.4 |
| 20260504040059 | 10 | 166 | 14.5 | 22.5 | 0.00 | 0.03 | 0.03 | 59 | 1004.5 |
| 20260504034559 | 10 | 179 | 11.3 | 16.1 | 0.00 | 0.03 | 0.03 | 57 | 1004.6 |
| 20260504033058 | 10 | 179 | 9.7 | 14.5 | 0.00 | 0.03 | 0.03 | 55 | 1004.6 |
| 20260504031603 | 11 | 181 | 9.7 | 16.1 | 0.00 | 0.03 | 0.03 | 53 | 1004.6 |
| 20260504030054 | 11 | 280 | 3.2 | 6.4 | 0.00 | 0.03 | 0.03 | 51 | 1004.6 |
| 20260504024555 | 12 | 280 | 0.0 | 6.4 | 0.00 | 0.03 | 0.03 | 49 | 1004.6 |
| 20260504023053 | 13 | 359 | 0.0 | 4.8 | 0.00 | 0.03 | 0.03 | 46 | 1004.4 |
| 20260504021553 | 14 | 282 | 3.2 | 6.4 | 0.00 | 0.03 | 0.03 | 44 | 1004.4 |
| 20260504020052 | 16 | 283 | 3.2 | 4.8 | 0.00 | 0.03 | 0.03 | 40 | 1004.4 |
| 20260504014557 | 18 | 282 | 1.6 | 3.2 | 0.00 | 0.03 | 0.03 | 36 | 1004.4 |
| 20260504013055 | 18 | 283 | 4.8 | 11.3 | 0.00 | 0.03 | 0.03 | 33 | 1004.5 |
| 20260504011549 | 18 | 283 | 4.8 | 14.5 | 0.00 | 0.03 | 0.03 | 34 | 1004.7 |
| 20260504010107 | 19 | 287 | 6.4 | 12.9 | 0.00 | 0.03 | 0.03 | 34 | 1004.7 |
| 20260504004547 | 19 | 271 | 11.3 | 19.3 | 0.00 | 0.03 | 0.03 | 34 | 1004.7 |
| 20260504003045 | 20 | 280 | 8.0 | 16.1 | 0.00 | 0.03 | 0.03 | 37 | 1004.8 |
| 20260504001551 | 20 | 299 | 9.7 | 19.3 | 0.00 | 0.03 | 0.03 | 38 | 1004.9 |
| 20260504000045 | 20 | 285 | 4.8 | 20.9 | 0.00 | 0.03 | 0.03 | 40 | 1005.2 |
| 20260503234540 | 20 | 289 | 14.5 | 20.9 | 0.00 | 0.03 | 0.03 | 38 | 1005.3 |
| 20260503233042 | 20 | 316 | 14.5 | 19.3 | 0.00 | 0.03 | 0.03 | 38 | 1005.3 |
| 20260503231543 | 20 | 290 | 16.1 | 27.4 | 0.00 | 0.03 | 0.03 | 37 | 1005.5 |
| 20260503230039 | 20 | 278 | 14.5 | 30.6 | 0.00 | 0.03 | 0.03 | 38 | 1005.5 |
| 20260503224540 | 20 | 287 | 17.7 | 30.6 | 0.00 | 0.03 | 0.03 | 37 | 1005.5 |
| 20260503223035 | 20 | 307 | 16.1 | 27.4 | 0.00 | 0.03 | 0.03 | 38 | 1005.7 |
| 20260503221537 | 20 | 272 | 16.1 | 24.1 | 0.00 | 0.03 | 0.03 | 36 | 1005.9 |
| 20260503220031 | 20 | 276 | 11.3 | 22.5 | 0.00 | 0.03 | 0.03 | 39 | 1006.2 |
| 20260503214533 | 19 | 279 | 11.3 | 22.5 | 0.03 | 0.03 | 0.03 | 39 | 1006.4 |
| 20260503213032 | 19 | 237 | 11.3 | 24.1 | 0.03 | 0.03 | 0.03 | 36 | 1006.6 |
| 20260503211525 | 18 | 238 | 11.3 | 25.7 | 0.03 | 0.03 | 0.03 | 38 | 1007.1 |
| 20260503210039 | 17 | 197 | 20.9 | 37.0 | 0.03 | 0.03 | 0.03 | 40 | 1007.5 |
| 20260503204525 | 20 | 268 | 16.1 | 29.0 | 0.00 | 0.00 | 0.00 | 38 | 1007.5 |
| 20260503203020 | 19 | 218 | 4.8 | 27.4 | 0.00 | 0.00 | 0.00 | 39 | 1007.7 |
| 20260503201526 | 17 | 189 | 12.9 | 32.2 | 0.00 | 0.00 | 0.00 | 43 | 1007.9 |
| 20260503200021 | 18 | 278 | 16.1 | 27.4 | 0.00 | 0.00 | 0.00 | 38 | 1007.8 |
| 20260503194517 | 18 | 239 | 8.0 | 20.9 | 0.00 | 0.00 | 0.00 | 39 | 1008.0 |
| 20260503193015 | 18 | 266 | 3.2 | 11.3 | 0.00 | 0.00 | 0.00 | 40 | 1008.3 |
| 20260503191514 | 18 | 327 | 4.8 | 12.9 | 0.00 | 0.00 | 0.00 | 39 | 1008.4 |
| 20260503190012 | 18 | 187 | 6.4 | 9.7 | 0.00 | 0.00 | 0.00 | 39 | 1008.7 |
| 20260503184510 | 19 | 181 | 6.4 | 19.3 | 0.00 | 0.00 | 0.00 | 40 | 1008.9 |
| 20260503183005 | 17 | 212 | 4.8 | 19.3 | 0.00 | 0.00 | 0.00 | 44 | 1009.3 |
| 20260503181505 | 17 | 243 | 4.8 | 12.9 | 0.00 | 0.00 | 0.00 | 43 | 1009.6 |
| 20260503180109 | 17 | 91 | 9.7 | 20.9 | 0.00 | 0.00 | 0.00 | 45 | 1009.3 |
| 20260503174558 | 16 | 78 | 3.2 | 16.1 | 0.00 | 0.00 | 0.00 | 45 | 1009.7 |
| 20260503173149 | 16 | 87 | 12.9 | 17.7 | 0.00 | 0.00 | 0.00 | 49 | 1009.9 |
| 20260503171555 | 15 | 158 | 4.8 | 25.7 | 0.00 | 0.00 | 0.00 | 54 | 1010.0 |